User: anonymous   Login
Location: Iesi
(43.5167°N, 13.2333°E)
Time: 07:27:20
(UTC+00:00)
Language:

Cosmos 1763 Rocket - Orbit

View from above orbital plane
View from above orbital plane
View from above satellite
View from above satellite

Ground track
Ground track

The orbit data is extracted from the following two-line orbital elements,

1 16864U 86052B   20299.82822966 +.00000065 +00000-0 +28465-4 0  9991
2 16864 074.0298 344.3318 0032109 141.3673 218.9789 14.40598277799290
Epoch (UTC): 25 October 2020 19:52:39
Eccentricity: 0.0032109
inclination: 74.0298°
perigee height: 733 km
apogee height: 779 km
right ascension of ascending node: 344.3318°
argument of perigee: 141.3673°
revolutions per day: 14.40598277
mean anomaly at epoch: 218.9789°
orbit number at epoch: 79929

The dashed part of the orbit path shows where the satellite is in the earth's shadow,  

DLR